User: anonymous   Login
Location: New Canada
(47.1017°N, 68.5042°W)
Time: 07:53:46
(UTC+00:00)
Language:

AO-91 - Orbit

View from above orbital plane
View from above orbital plane
View from above satellite
View from above satellite

Ground track
Ground track

The orbit data is extracted from the following two-line orbital elements,

1 43017U 17073E   24141.58033602  .00019415  00000-0  12026-2 0  9995
2 43017  97.5826  18.0490 0212866  26.4503 334.7396 14.92843783351543
Epoch (UTC): 20 May 2024 13:55:41
Eccentricity: 0.0212866
inclination: 97.5826°
perigee height: 441 km
apogee height: 737 km
right ascension of ascending node: 18.0490°
argument of perigee: 26.4503°
revolutions per day: 14.92843783
mean anomaly at epoch: 334.7396°
orbit number at epoch: 35154

The dashed part of the orbit path shows where the satellite is in the earth's shadow,  

DLR